TimeCST,TemperatureF,Dew PointF,Humidity,Sea Level PressureIn,VisibilityMPH,Wind Direction,Wind SpeedMPH,Gust SpeedMPH,PrecipitationIn,Events,Conditions,WindDirDegrees,DateUTC
12:15 AM,11.8,3.2,68,30.09,10.0,NNW,5.8,-,N/A,,Overcast,340,2014-01-22 06:15:00
12:35 AM,11.1,1.9,67,30.09,10.0,North,10.4,-,N/A,,Overcast,360,2014-01-22 06:35:00
12:55 AM,10.8,1.6,67,30.09,10.0,NNW,10.4,-,N/A,,Overcast,340,2014-01-22 06:55:00
1:15 AM,10.6,1.8,68,30.09,10.0,NNW,8.1,-,N/A,,Overcast,330,2014-01-22 07:15:00
1:35 AM,10.4,1.2,66,30.11,10.0,North,9.2,-,N/A,,Overcast,350,2014-01-22 07:35:00
1:55 AM,10.4,0.9,65,30.12,10.0,North,9.2,-,N/A,,Overcast,360,2014-01-22 07:55:00
2:15 AM,10.2,1.8,69,30.11,10.0,North,4.6,-,N/A,,Overcast,10,2014-01-22 08:15:00
2:35 AM,10.0,2.7,72,30.11,7.0,North,4.6,-,N/A,Snow,Light Snow,360,2014-01-22 08:35:00
2:55 AM,9.7,1.6,70,30.11,10.0,NNE,6.9,-,N/A,,Overcast,30,2014-01-22 08:55:00
3:15 AM,9.3,1.0,69,30.11,10.0,NNE,6.9,-,N/A,,Overcast,20,2014-01-22 09:15:00
3:55 AM,8.6,0.5,70,30.11,10.0,NNE,5.8,-,N/A,,Overcast,20,2014-01-22 09:55:00
4:15 AM,8.4,0.7,71,30.11,10.0,NNE,8.1,-,N/A,,Overcast,20,2014-01-22 10:15:00
4:35 AM,8.2,0.5,71,30.11,10.0,NNE,5.8,-,N/A,,Overcast,20,2014-01-22 10:35:00
4:55 AM,8.1,1.0,73,30.12,10.0,North,3.5,-,N/A,,Overcast,10,2014-01-22 10:55:00
5:15 AM,7.7,1.4,75,30.12,10.0,NNE,4.6,-,N/A,Snow,Light Snow,20,2014-01-22 11:15:00
5:35 AM,7.5,0.9,74,30.12,10.0,NNE,4.6,-,N/A,Snow,Light Snow,20,2014-01-22 11:35:00
5:55 AM,7.3,1.2,76,30.12,10.0,Calm,Calm,-,N/A,,Overcast,0,2014-01-22 11:55:00
6:15 AM,7.2,0.7,75,30.13,10.0,NNE,3.5,-,N/A,Snow,Light Snow,20,2014-01-22 12:15:00
6:35 AM,7.3,1.0,75,30.13,10.0,NNE,5.8,-,N/A,,Overcast,20,2014-01-22 12:35:00
6:55 AM,6.8,0.5,75,30.14,10.0,North,4.6,-,N/A,,Overcast,10,2014-01-22 12:55:00
7:15 AM,6.8,0.5,75,30.13,10.0,NNE,5.8,-,N/A,,Overcast,20,2014-01-22 13:15:00
7:35 AM,6.8,0.5,75,30.13,10.0,NNE,4.6,-,N/A,,Overcast,30,2014-01-22 13:35:00
7:55 AM,6.8,0.5,75,30.14,10.0,Calm,Calm,-,N/A,,Mostly Cloudy,0,2014-01-22 13:55:00
8:15 AM,7.3,0.5,74,30.14,10.0,Calm,Calm,-,N/A,,Mostly Cloudy,0,2014-01-22 14:15:00
8:35 AM,8.4,0.7,71,30.14,10.0,NE,3.5,-,N/A,,Scattered Clouds,40,2014-01-22 14:35:00
8:55 AM,9.5,1.4,70,30.14,10.0,Calm,Calm,-,N/A,,Clear,0,2014-01-22 14:55:00
9:15 AM,9.7,0.7,67,30.13,10.0,Calm,Calm,-,N/A,,Clear,0,2014-01-22 15:15:00
9:35 AM,11.3,1.2,64,30.14,10.0,Calm,Calm,-,N/A,,Clear,0,2014-01-22 15:35:00
9:55 AM,12.4,1.6,62,30.13,10.0,Calm,Calm,-,N/A,,Clear,0,2014-01-22 15:55:00
10:15 AM,14.0,1.6,58,30.12,10.0,Calm,Calm,-,N/A,,Clear,0,2014-01-22 16:15:00
10:35 AM,15.3,3.4,59,30.11,10.0,Calm,Calm,-,N/A,,Clear,0,2014-01-22 16:35:00
10:55 AM,16.9,3.7,56,30.10,10.0,Calm,Calm,-,N/A,,Clear,0,2014-01-22 16:55:00
11:15 AM,18.0,5.4,58,30.09,10.0,NE,3.5,-,N/A,,Clear,40,2014-01-22 17:15:00
11:35 AM,18.5,4.3,54,30.08,10.0,South,3.5,-,N/A,,Clear,170,2014-01-22 17:35:00
11:55 AM,19.6,4.5,52,30.07,10.0,Calm,Calm,-,N/A,,Clear,0,2014-01-22 17:55:00
12:15 PM,21.2,5.0,50,30.07,10.0,SSE,3.5,-,N/A,,Clear,160,2014-01-22 18:15:00
12:35 PM,21.0,4.8,50,30.04,10.0,Calm,Calm,-,N/A,,Clear,0,2014-01-22 18:35:00
12:55 PM,23.0,5.5,47,30.03,10.0,Calm,Calm,-,N/A,,Clear,0,2014-01-22 18:55:00
1:15 PM,22.8,4.6,46,30.02,10.0,SSE,3.5,-,N/A,,Clear,160,2014-01-22 19:15:00
1:35 PM,24.1,3.0,40,30.02,10.0,SSE,4.6,-,N/A,,Clear,160,2014-01-22 19:35:00
1:55 PM,24.4,3.7,41,30.02,10.0,SE,3.5,-,N/A,,Mostly Cloudy,140,2014-01-22 19:55:00
2:15 PM,23.5,0.5,37,30.02,10.0,South,3.5,-,N/A,,Overcast,170,2014-01-22 20:15:00
2:35 PM,24.3,2.8,40,30.02,10.0,South,3.5,-,N/A,,Overcast,170,2014-01-22 20:35:00
2:55 PM,23.9,3.2,41,30.02,10.0,SSW,3.5,-,N/A,,Overcast,200,2014-01-22 20:55:00
3:15 PM,24.6,3.0,40,30.02,10.0,SSW,5.8,-,N/A,,Overcast,200,2014-01-22 21:15:00
3:35 PM,24.3,3.9,42,30.03,10.0,South,3.5,-,N/A,,Overcast,190,2014-01-22 21:35:00
3:55 PM,24.1,3.9,42,30.02,10.0,South,5.8,-,N/A,,Overcast,180,2014-01-22 21:55:00
4:15 PM,23.9,3.7,42,30.02,10.0,South,6.9,-,N/A,,Overcast,180,2014-01-22 22:15:00
4:35 PM,24.1,4.5,43,30.03,10.0,South,4.6,-,N/A,,Overcast,190,2014-01-22 22:35:00
4:55 PM,23.9,3.7,42,30.05,10.0,Calm,Calm,-,N/A,,Overcast,0,2014-01-22 22:55:00
5:15 PM,24.3,3.2,40,30.06,10.0,Calm,Calm,-,N/A,,Overcast,0,2014-01-22 23:15:00
5:35 PM,24.4,-0.9,33,30.06,10.0,WSW,3.5,-,N/A,,Overcast,250,2014-01-22 23:35:00
5:55 PM,24.4,-0.4,34,30.07,10.0,West,4.6,-,N/A,,Overcast,260,2014-01-22 23:55:00
6:15 PM,24.6,-0.4,34,30.07,10.0,West,4.6,-,N/A,,Overcast,260,2014-01-23 00:15:00
6:35 PM,24.4,-0.4,34,30.08,10.0,SW,6.9,-,N/A,,Overcast,230,2014-01-23 00:35:00
6:55 PM,24.3,-0.2,35,30.09,10.0,WNW,5.8,-,N/A,,Overcast,290,2014-01-23 00:55:00
7:15 PM,24.3,-0.8,34,30.09,10.0,SW,4.6,-,N/A,,Overcast,230,2014-01-23 01:15:00
7:35 PM,23.9,0.9,37,30.10,10.0,West,5.8,-,N/A,,Overcast,260,2014-01-23 01:35:00
7:55 PM,23.7,2.5,40,30.11,10.0,West,13.8,18.4,N/A,,Overcast,260,2014-01-23 01:55:00
8:15 PM,23.0,2.5,41,30.12,10.0,WNW,6.9,-,N/A,,Overcast,290,2014-01-23 02:15:00
8:35 PM,22.8,3.4,43,30.13,10.0,WNW,6.9,-,N/A,,Overcast,300,2014-01-23 02:35:00
8:55 PM,22.5,4.8,47,30.13,10.0,WSW,3.5,-,N/A,,Overcast,250,2014-01-23 02:55:00
9:15 PM,22.5,5.4,48,30.13,10.0,Calm,Calm,-,N/A,,Overcast,0,2014-01-23 03:15:00
9:35 PM,22.6,6.6,50,30.14,10.0,West,6.9,-,N/A,,Overcast,260,2014-01-23 03:35:00
9:55 PM,22.6,7.7,53,30.14,10.0,West,5.8,-,N/A,,Overcast,270,2014-01-23 03:55:00
10:15 PM,22.5,7.7,53,30.13,10.0,Calm,Calm,-,N/A,,Overcast,0,2014-01-23 04:15:00
10:35 PM,22.1,8.6,56,30.14,10.0,Calm,Calm,-,N/A,,Overcast,0,2014-01-23 04:35:00
10:55 PM,21.7,9.1,58,30.14,10.0,SSW,3.5,-,N/A,,Mostly Cloudy,210,2014-01-23 04:55:00
11:15 PM,21.2,9.0,59,30.14,10.0,Calm,Calm,-,N/A,,Clear,0,2014-01-23 05:15:00
11:35 PM,20.5,9.5,63,30.14,10.0,Calm,Calm,-,N/A,,Clear,0,2014-01-23 05:35:00
11:55 PM,19.4,10.4,68,30.14,10.0,Calm,Calm,-,N/A,,Mostly Cloudy,0,2014-01-23 05:55:00